Location: Neuvy Saint Sepulchre
(46.5953°N, 1.8122°E)
Time: 11:23:32
(UTC+02:00)

ISS - Pass Details

Date: 06 May 2021
Orbit: 417 x 422 km, 51.6° (Epoch: 15 May)

Event Time Altitude Azimuth Distance (km) Brightness Sun altitude
Rises 05:54:27 0° 287° (WNW) 2,370 -0.3 -6.3°
Reaches altitude 10° 05:56:41 10° 297° (WNW) 1,506 -1.2 -5.9°
Maximum altitude 05:59:48 34° 4° (N) 721 -2.1 -5.5°
Drops below altitude 10° 06:02:56 10° 72° (ENE) 1,507 0.8 -5.0°
Sets 06:05:09 0° 82° (E) 2,372 1.6 -4.7°
